This is the latest recevied weather packets stored in our database for station/object KMSY. If no packets are shown the sender has not sent any weather packets the latest 10 day(s).
| Time | Temp. | Humidity | Pressure | Rain* | Wind** | Luminosity | Snow |
|---|---|---|---|---|---|---|---|
| 1778273012 | 20.56° C | 88% | 1013.2 hPa | - | - | - | - |
| 1778272417 | 20.56° C | 88% | 1013.2 hPa | - | - | - | - |
| 1778271812 | 20.56° C | 83% | 1012.5 hPa | - | - | - | - |
| 1778271215 | 20.56° C | 83% | 1012.5 hPa | - | - | - | - |
| 1778270613 | 20.56° C | 83% | 1012.5 hPa | - | - | - | - |
| 1778270013 | 22.78° C | 83% | 1013.2 hPa | - | - | - | - |
| 1778269415 | 22.78° C | 83% | 1013.2 hPa | - | - | - | - |
| 1778268813 | 22.78° C | 83% | 1013.2 hPa | - | - | - | - |
| 1778268216 | 23.89° C | 83% | 1013.2 hPa | - | - | - | - |
| 1778267616 | 23.89° C | 83% | 1013.2 hPa | - | - | - | - |
| 1778267018 | 23.89° C | 83% | 1013.2 hPa | - | - | - | - |
| 1778266414 | 25.56° C | 74% | 1012.9 hPa | - | - | - | - |
| 1778265819 | 25.56° C | 74% | 1012.9 hPa | - | - | - | - |
| 1778265218 | 25.56° C | 74% | 1012.9 hPa | - | - | - | - |
| 1778264612 | 25.56° C | 74% | 1012.9 hPa | - | - | - | - |
| 1778264014 | 25.56° C | 74% | 1012.9 hPa | - | - | - | - |
| 1778263414 | 25.56° C | 74% | 1012.9 hPa | - | - | - | - |
| 1778262816 | 25° C | 78% | 1013.5 hPa | - | - | - | - |
| 1778262211 | 25° C | 78% | 1013.5 hPa | - | - | - | - |
| 1778261616 | 25° C | 78% | 1013.5 hPa | - | - | - | - |
| 1778261015 | 25° C | 78% | 1013.5 hPa | - | - | - | - |
| 1778260419 | 25° C | 78% | 1013.5 hPa | - | - | - | - |
| 1778259818 | 25° C | 78% | 1013.5 hPa | - | - | - | - |
| 1778259213 | 23.89° C | 78% | 1013.9 hPa | - | - | - | - |
| 1778258618 | 23.89° C | 78% | 1013.9 hPa | - | - | - | - |
* Rain since midnight (hover to see other rain measurements)
** Current wind speed in m/s (hover to see current wind gust speed)